This is the latest recevied weather packets stored in our database for station/object SR5MRF. If no packets are shown the sender has not sent any weather packets the latest 1 day(s).
| Time | Temp. | Humidity | Pressure | Rain* | Wind** | Luminosity | Snow |
|---|---|---|---|---|---|---|---|
| 1778068120 | 25.56° C | 40% | 1002.6 hPa | 0 mm | - | - | - |
| 1778067399 | 26.11° C | 39% | 1002.7 hPa | 0 mm | - | - | - |
| 1778066920 | 26.67° C | 38% | 1002.7 hPa | 0 mm | - | - | - |
| 1778066559 | 26.67° C | 38% | 1002.7 hPa | 0 mm | - | - | - |
| 1778066320 | 27.22° C | 38% | 1002.7 hPa | 0 mm | - | - | - |
| 1778065719 | 27.22° C | 38% | 1002.5 hPa | 0 mm | - | - | - |
| 1778065120 | 27.78° C | 38% | 1002.5 hPa | 0 mm | - | - | - |
| 1778064879 | 27.78° C | 37% | 1002.4 hPa | 0 mm | - | - | - |
| 1778064520 | 27.78° C | 37% | 1002.6 hPa | 0 mm | - | - | - |
| 1778063920 | 27.78° C | 37% | 1002.7 hPa | 0 mm | - | - | - |
| 1778062359 | 27.78° C | 37% | 1002.7 hPa | 0 mm | - | - | - |
| 1778060920 | 27.22° C | 36% | 1002.7 hPa | 0 mm | - | - | - |
| 1778060320 | 26.11° C | 37% | 1002.8 hPa | 0 mm | - | - | - |
| 1778059839 | 25.56° C | 37% | 1002.6 hPa | 0 mm | - | - | - |
| 1778059120 | 26.11° C | 37% | 1002.7 hPa | 0 mm | - | - | - |
| 1778058999 | 25.56° C | 37% | 1002.6 hPa | 0 mm | - | - | - |
| 1778058520 | 26.11° C | 35% | 1002.7 hPa | 0 mm | - | - | - |
| 1778057920 | 27.22° C | 34% | 1002.6 hPa | 0 mm | - | - | - |
| 1778057739 | 27.22° C | 34% | 1002.6 hPa | 0 mm | - | - | - |
| 1778057319 | 28.33° C | 34% | 1002.6 hPa | 0 mm | - | - | - |
| 1778056899 | 28.89° C | 33% | 1002.6 hPa | 0 mm | - | - | - |
| 1778055520 | 28.33° C | 34% | 1002.3 hPa | 0 mm | - | - | - |
| 1778054379 | 28.33° C | 35% | 1002.5 hPa | 0 mm | - | - | - |
| 1778054320 | 28.33° C | 34% | 1002.6 hPa | 0 mm | - | - | - |
| 1778053959 | 28.33° C | 36% | 1002.5 hPa | 0 mm | - | - | - |
* Rain latest hour (hover to see other rain measurements)
** Current wind speed in m/s (hover to see current wind gust speed)